Regional Weather Roundup
Issued by NWS

Home | Current Version | Previous Version | Text Only | Print | Product List | Glossary Off
Versions: 1 2 3 4 5 6 7 8 9 10 11 12 13 14 15 16 17 18 19 20 21 22 23 24 25 26 27 28 29 30 31 32 33 34 35 36 37 38 39 40 41 42 43 44 45 46 47 48 49 50

905
ASUS44 KJAN 161803
RWRMS

MISSISSIPPI HOURLY WEATHER ROUNDUP
NATIONAL WEATHER SERVICE JACKSON MS
100 PM CDT WED APR 16 2014

NOTE: "FAIR: INDICATES FEW OR NO CLOUDS BELOW 12,000 FEET WITH NO
SIGNIFICANT WEATHER AND/OR OBSTRUCTIONS TO VISIBILITY.

MSZ001>002-007>008-010>013-018>021-025>028-034>036-161900-
NORTHWEST MISSISSIPPI

CITY           SKY/WX    TMP DP  RH WIND       PRES   REMARKS
CLARKSDALE       N/A     54  32  43 SE6       30.24F
CLEVELAND      FAIR      53  32  45 SE5       30.22F
GREENWOOD      FAIR      58  28  32 S7        30.21F
6HR MIN TEMP:  36; 6HR MAX TEMP:  58;

GREENVILLE     FAIR      55  32  41 SE7       30.22F
6HR MIN TEMP:  38; 6HR MAX TEMP:  55;

GRENADA          N/A     54  28  37 MISG        N/A
OLIVE BRANCH   MOSUNNY   54  27  35 S7        30.22F
OXFORD         FAIR      55  23  28 SE5       30.22F
TUNICA         FAIR      54  28  37 S6        30.24F
$$

MSZ003>006-009-014>017-022>024-029>033-037>039-161900-
NORTHEAST MISSISSIPPI

CITY           SKY/WX    TMP DP  RH WIND       PRES   REMARKS
BELMONT        FAIR      56  26  32 NE5       30.22F
COLUMBUS AFB   FAIR      58  27  30 VRB2      30.23F
6HR MIN TEMP:  34; 6HR MAX TEMP:  58; 6HR PCP: TRACE;

CORINTH        FAIR      55  23  28 E6        30.23F
GOLDN TRIANGLE SUNNY     54  28  37 CALM      30.29S
STARKVILLE     FAIR      54  30  40 E5        30.22F
TUPELO         FAIR      56  25  30 VRB6      30.22F
6HR MIN TEMP:  32; 6HR MAX TEMP:  56;

$$

MSZ040-058-161900-
CENTRAL MISSISSIPPI

CITY           SKY/WX    TMP DP  RH WIND       PRES   REMARKS
JACKSON INTL   FAIR      59  29  31 VRB6      30.22F
6HR MIN TEMP:  37; 6HR MAX TEMP:  59;

JACKSON HAWKNS FAIR      58  28  32 VRB7      30.22F
6HR MIN TEMP:  40; 6HR MAX TEMP:  59;

MERIDIAN KEY   FAIR      58  26  29 CALM      30.21F
6HR MIN TEMP:  36; 6HR MAX TEMP:  58;

MERIDIAN NAS   FAIR      58  30  34 VRB3      30.22F
6HR MIN TEMP:  35; 6HR MAX TEMP:  58;

RAYMOND        FAIR      57  52  82 E3        30.23F
VICKSBURG      FAIR      54  32  43 VRB3      30.23F
6HR MIN TEMP:  42; 6HR MAX TEMP:  55;

$$

MSZ059>079-161900-
SOUTH MISSISSIPPI

CITY           SKY/WX    TMP DP  RH WIND       PRES   REMARKS
BROOKHAVEN     FAIR      55  32  41 S7        30.23F
COLUMBIA       FAIR      59  30  33 MISG      30.21F
HATTIESBURG    FAIR      58  29  33 CALM      30.22F
6HR MIN TEMP:  37; 6HR MAX TEMP:  59;

MCCOMB         FAIR      58  30  34 MISG      30.22F
6HR MIN TEMP:  35; 6HR MAX TEMP:  58;

NATCHEZ        FAIR      57  32  38 E5        30.21F
6HR MIN TEMP:  37; 6HR MAX TEMP:  57;

PINE BELT      FAIR      57  28  33 SW3       30.22F
6HR MIN TEMP:  36; 6HR MAX TEMP:  57;

$$

MSZ080>082-161900-
COASTAL MISSISSIPPI

CITY           SKY/WX    TMP DP  RH WIND       PRES   REMARKS
BAY ST LOUIS   SUNNY     59  25  27 VRB3      30.21F
BILOXI         FAIR      57  35  44 S7        30.20F
6HR MIN TEMP:  40; 6HR MAX TEMP:  57;

PASCAGOULA     FAIR      59  33  37 S7        30.20F
6HR MIN TEMP:  38; 6HR MAX TEMP:  60;

GULFPORT       FAIR      62  34  35 CALM      30.20F
6HR MIN TEMP:  41; 6HR MAX TEMP:  62;

$$



USA.gov is the U.S. government's official web portal to all federal, state and local government web resources and services.